Temp
7 7 7 8 8 8 8 8 8 8 7 7 7 6 6 6 6 6 6 6 5 5 5 5 4 4 4 4 3 3 3 3 3 2 2 2 2 2 2 1 1 1 1
7 7 6 7 8 8 7 7 7 7 7 6 7 6 6 6 6 5 5 5 5 5 4 4 4 3 3 3 3 3 2 2 2 2 2 1 1 1 1 0 0 0 -0
5 5 6 7 7 7 6 6 6 6 7 7 7 6 5 5 5 5 5 5 4 4 4 3 3 3 2 2 2 2 2 2 2 1 1 1 1 0 0 -0 -0 -1 -1
6 6 6 7 7 6 6 6 5 5 6 6 6 5 5 5 5 4 4 4 4 4 3 3 2 2 2 2 1 1 1 1 1 1 0 0 0 0 -0 -1 -1 -1 -1
5 6 6 6 6 5 6 5 6 6 5 5 6 6 5 4 4 4 3 3 3 3 2 2 2 1 1 1 1 1 1 0 0 -0 -0 -1 -1 -1 -1 -1 -2 -2 -2
5 5 5 5 4 5 6 6 5 5 5 5 5 5 5 4 4 3 3 3 2 2 2 1 1 1 1 0 0 0 -0 -0 -1 -1 -1 -2 -2 -2 -2 -2 -2 -2 -2
6 6 5 6 6 6 6 5 5 5 5 4 3 4 4 3 3 2 2 2 2 1 1 1 0 0 0 -0 -0 -1 -1 -1 -1 -2 -2 -3 -3 -3 -3 -3 -3 -3 -2
6 6 6 5 5 5 5 5 5 5 5 4 4 4 4 3 2 2 1 1 1 0 0 0 -0 -1 -1 -1 -1 -2 -2 -2 -2 -3 -3 -4 -4 -4 -4 -4 -4 -3 -3
6 6 6 5 5 5 5 5 4 5 5 4 4 3 2 1 1 1 0 0 -0 -0 -0 -1 -1 -2 -2 -2 -2 -2 -3 -3 -3 -4 -4 -4 -5 -5 -5 -5 -5 -5 -4
6 6 6 6 6 6 5 4 4 4 3 3 3 2 2 1 0 0 -0 -0 -0 -1 -1 -2 -2 -2 -3 -3 -3 -3 -3 -4 -4 -4 -5 -5 -5 -6 -6 -6 -6 -6 -6
6 7 6 6 6 5 4 4 4 3 2 2 2 1 1 0 -0 -0 -0 -1 -1 -2 -2 -2 -3 -3 -3 -3 -4 -4 -4 -4 -5 -5 -5 -6 -6 -6 -6 -7 -7 -7 -7
5 5 5 5 4 4 4 4 3 2 2 1 1 0 -0 -1 -1 -1 -1 -2 -2 -3 -3 -3 -3 -4 -4 -4 -4 -5 -5 -5 -6 -6 -6 -6 -7 -7 -7 -7 -8 -8 -9
4 3 3 3 3 3 3 2 2 2 1 1 0 -0 -1 -1 -1 -2 -2 -3 -3 -3 -4 -4 -4 -4 -5 -5 -5 -5 -6 -6 -6 -6 -7 -7 -7 -7 -8 -9 -9 -10 -10
3 3 3 2 2 2 2 2 2 1 1 0 -1 -1 -1 -2 -2 -3 -3 -3 -4 -4 -4 -5 -5 -5 -5 -5 -6 -6 -6 -7 -7 -7 -7 -7 -8 -9 -9 -10 -10 -10 -11
2 3 2 2 2 2 2 1 1 0 -1 -1 -1 -2 -2 -3 -3 -3 -4 -4 -5 -5 -5 -5 -5 -6 -6 -6 -7 -7 -7 -7 -7 -8 -8 -9 -10 -10 -11 -11 -11 -12 -12
2 2 2 2 2 1 1 0 -0 -1 -1 -2 -2 -2 -3 -3 -4 -4 -5 -5 -5 -6 -6 -6 -6 -7 -7 -7 -7 -7 -7 -8 -8 -8 -9 -10 -11 -11 -11 -12 -12 -13 -13
2 2 1 1 1 0 -0 -1 -1 -2 -2 -2 -3 -3 -4 -4 -5 -5 -6 -6 -6 -6 -7 -7 -7 -7 -8 -8 -8 -8 -8 -9 -9 -10 -10 -11 -12 -12 -12 -12 -13 -13 -14
2 1 1 0 0 -0 -1 -1 -1 -2 -3 -3 -4 -4 -5 -5 -6 -6 -6 -7 -7 -7 -7 -8 -8 -8 -9 -9 -9 -9 -9 -10 -10 -11 -11 -12 -12 -12 -13 -13 -13 -14 -14
0 -0 -1 -1 -1 -1 -2 -3 -3 -4 -4 -4 -5 -5 -6 -6 -7 -7 -7 -8 -8 -8 -9 -9 -9 -9 -9 -9 -10 -10 -10 -11 -11 -12 -12 -12 -13 -13 -13 -14 -14 -14 -14
-1 -1 -1 -1 -2 -2 -2 -3 -4 -4 -5 -5 -6 -6 -7 -7 -7 -8 -8 -9 -9 -9 -9 -9 -9 -9 -9 -10 -11 -11 -11 -11 -12 -12 -13 -13 -13 -14 -14 -14 -15 -15 -15
-1 -1 -2 -2 -3 -3 -4 -4 -5 -5 -5 -6 -6 -7 -7 -8 -8 -9 -9 -9 -9 -9 -9 -9 -10 -11 -11 -11 -12 -12 -12 -12 -12 -12 -13 -13 -14 -14 -14 -15 -16 -16 -16
-2 -2 -2 -3 -3 -4 -4 -5 -5 -6 -6 -7 -7 -8 -8 -9 -9 -9 -9 -10 -10 -10 -10 -10 -11 -11 -12 -12 -12 -12 -12 -13 -13 -13 -13 -14 -14 -14 -15 -16 -16 -16 -17
-3 -3 -3 -4 -4 -5 -5 -5 -6 -7 -7 -8 -9 -9 -9 -9 -10 -10 -10 -11 -10 -11 -11 -11 -11 -12 -12 -12 -12 -12 -13 -13 -14 -14 -14 -14 -14 -15 -16 -16 -16 -16 -17
-4 -3 -4 -4 -5 -5 -6 -7 -7 -7 -8 -9 -9 -9 -10 -10 -11 -11 -11 -11 -11 -11 -12 -12 -12 -12 -12 -12 -12 -13 -13 -14 -14 -14 -14 -15 -15 -15 -16 -16 -17 -17 -17
-4 -5 -5 -6 -6 -6 -7 -7 -8 -8 -9 -9 -10 -10 -11 -11 -11 -11 -11 -11 -12 -12 -12 -12 -12 -12 -12 -12 -13 -13 -14 -14 -14 -15 -15 -15 -16 -16 -16 -17 -17 -17 -18
-5 -6 -6 -6 -6 -7 -7 -8 -8 -9 -9 -10 -11 -11 -11 -11 -11 -11 -12 -12 -12 -12 -12 -12 -13 -13 -13 -13 -14 -14 -15 -15 -15 -15 -16 -16 -16 -16 -17 -17 -17 -17 -18
Height
3123 3126 3127 3130 3132 3135 3138 3141 3143 3145 3147 3148 3149 3148 3149 3150 3150 3150 3149 3149 3148 3148 3147 3147 3146 3146 3146 3145 3145 3144 3143 3142 3141 3140 3139 3137 3136 3134 3133 3131 3129 3127 3126
3119 3122 3124 3125 3130 3132 3135 3137 3140 3142 3145 3145 3147 3145 3146 3145 3146 3146 3146 3146 3145 3144 3143 3143 3142 3142 3142 3141 3141 3140 3139 3139 3137 3137 3135 3134 3133 3130 3128 3126 3124 3123 3121
3113 3117 3122 3126 3127 3128 3131 3133 3135 3137 3140 3142 3144 3143 3142 3141 3141 3141 3142 3142 3140 3140 3139 3139 3138 3138 3137 3137 3136 3135 3134 3134 3133 3131 3131 3128 3127 3126 3124 3122 3120 3117 3116
3110 3115 3118 3123 3126 3127 3125 3128 3130 3133 3136 3138 3139 3137 3137 3137 3137 3137 3138 3136 3135 3135 3134 3134 3133 3133 3133 3132 3131 3130 3129 3128 3126 3125 3124 3122 3120 3118 3118 3117 3114 3112 3110
3105 3108 3114 3118 3121 3122 3122 3124 3127 3130 3131 3135 3134 3133 3133 3133 3131 3132 3132 3131 3130 3130 3129 3129 3129 3128 3127 3127 3126 3125 3123 3122 3121 3120 3118 3116 3113 3110 3108 3107 3110 3107 3104
3102 3107 3107 3112 3115 3117 3118 3118 3119 3124 3125 3126 3128 3129 3128 3127 3126 3126 3126 3125 3125 3124 3124 3124 3124 3123 3122 3121 3120 3119 3118 3116 3115 3113 3112 3109 3107 3104 3100 3096 3095 3092 3098
3093 3098 3100 3105 3108 3111 3113 3114 3117 3117 3117 3118 3120 3122 3121 3120 3119 3120 3120 3120 3119 3119 3118 3118 3118 3117 3116 3115 3114 3113 3112 3110 3108 3106 3104 3102 3099 3096 3092 3088 3083 3077 3077
3085 3089 3092 3095 3101 3105 3107 3108 3110 3110 3111 3110 3112 3115 3115 3113 3113 3113 3114 3114 3114 3113 3113 3112 3112 3112 3111 3110 3108 3107 3105 3103 3101 3099 3097 3094 3091 3087 3083 3078 3072 3066 3064
3078 3081 3085 3089 3093 3096 3099 3101 3102 3103 3104 3105 3107 3107 3107 3106 3107 3107 3108 3108 3108 3107 3107 3106 3106 3106 3106 3104 3102 3101 3099 3096 3094 3091 3089 3086 3082 3078 3074 3069 3063 3057 3047
3071 3073 3077 3082 3085 3088 3091 3092 3095 3096 3096 3098 3099 3099 3100 3100 3101 3101 3102 3102 3102 3101 3101 3101 3101 3101 3100 3098 3095 3093 3091 3089 3086 3083 3080 3076 3073 3069 3065 3059 3055 3050 3043
3064 3066 3068 3072 3076 3080 3082 3085 3087 3088 3089 3090 3091 3092 3093 3093 3095 3095 3096 3096 3096 3096 3096 3096 3095 3094 3092 3090 3088 3086 3083 3081 3078 3074 3070 3066 3062 3058 3053 3048 3044 3040 3034
3059 3060 3062 3065 3069 3073 3075 3077 3079 3081 3082 3083 3084 3085 3086 3088 3089 3089 3090 3090 3091 3090 3090 3089 3088 3087 3085 3083 3081 3078 3075 3071 3068 3064 3060 3056 3051 3047 3042 3037 3032 3028 3024
3054 3056 3058 3061 3063 3066 3068 3071 3072 3074 3075 3076 3077 3079 3081 3082 3082 3083 3084 3084 3084 3084 3083 3083 3082 3081 3078 3075 3072 3069 3065 3062 3058 3054 3049 3045 3040 3036 3031 3026 3021 3017 3012
3051 3051 3052 3055 3057 3060 3062 3064 3065 3067 3069 3070 3072 3073 3074 3076 3077 3077 3078 3078 3078 3078 3078 3077 3075 3073 3070 3067 3063 3059 3056 3052 3048 3043 3038 3034 3028 3024 3019 3015 3010 3005 3000
3047 3048 3049 3050 3052 3054 3056 3057 3059 3061 3063 3065 3066 3067 3069 3070 3071 3072 3072 3072 3073 3072 3071 3070 3068 3065 3061 3057 3053 3049 3045 3042 3037 3033 3027 3022 3017 3013 3008 3004 2999 2994 2988
3044 3045 3046 3047 3049 3050 3052 3053 3055 3057 3058 3060 3062 3063 3064 3065 3065 3066 3066 3067 3066 3065 3064 3061 3059 3055 3052 3048 3044 3039 3035 3031 3026 3021 3017 3013 3009 3004 3000 2995 2989 2984 2977
3040 3041 3042 3044 3045 3046 3047 3049 3051 3052 3054 3055 3056 3057 3058 3059 3059 3060 3060 3060 3059 3057 3055 3052 3049 3046 3043 3038 3034 3029 3025 3020 3016 3011 3007 3003 2999 2995 2989 2985 2979 2974 2968
3034 3036 3037 3038 3039 3041 3042 3044 3045 3046 3048 3049 3051 3052 3053 3053 3054 3054 3053 3052 3051 3049 3047 3043 3040 3037 3033 3029 3025 3020 3015 3011 3006 3001 2996 2992 2988 2983 2977 2973 2969 2966 2961
3027 3029 3030 3031 3032 3034 3035 3037 3039 3041 3042 3044 3045 3047 3047 3048 3048 3047 3046 3045 3043 3040 3037 3034 3031 3027 3025 3020 3016 3011 3006 3001 2996 2991 2986 2982 2978 2973 2967 2961 2958 2956 2951
3024 3025 3026 3027 3028 3029 3031 3032 3034 3035 3037 3039 3040 3041 3042 3042 3041 3040 3039 3037 3034 3032 3029 3026 3022 3018 3015 3011 3007 3002 2995 2990 2985 2981 2977 2972 2968 2963 2958 2953 2948 2944 2941
3017 3018 3018 3020 3021 3022 3024 3026 3028 3030 3032 3034 3034 3035 3035 3035 3034 3033 3031 3029 3027 3024 3021 3018 3014 3009 3005 3001 2996 2990 2984 2979 2975 2971 2967 2963 2958 2954 2949 2944 2940 2935 2931
3011 3012 3013 3014 3015 3017 3019 3022 3024 3025 3027 3027 3028 3029 3028 3028 3026 3025 3024 3022 3019 3016 3011 3007 3004 2999 2994 2990 2985 2979 2974 2969 2965 2961 2957 2953 2949 2944 2940 2936 2931 2926 2921
3006 3006 3007 3008 3010 3013 3015 3017 3018 3020 3020 3021 3022 3021 3021 3020 3020 3018 3015 3014 3010 3006 3002 2997 2992 2988 2985 2981 2977 2972 2966 2961 2956 2952 2948 2943 2940 2935 2930 2926 2921 2916 2911
3000 3001 3002 3004 3006 3008 3009 3010 3011 3012 3013 3014 3015 3014 3014 3013 3012 3011 3008 3005 3000 2996 2992 2988 2983 2979 2975 2972 2968 2962 2956 2952 2948 2944 2939 2935 2931 2926 2921 2916 2912 2907 2902
2994 2995 2997 2999 2999 3000 3001 3003 3004 3005 3007 3007 3008 3008 3007 3006 3004 3002 2999 2995 2991 2986 2982 2979 2974 2970 2966 2962 2956 2950 2945 2940 2937 2933 2929 2925 2920 2916 2912 2908 2903 2899 2894
2987 2988 2989 2990 2991 2993 2995 2996 2997 2999 3000 3001 3001 3001 3000 2998 2996 2993 2991 2986 2982 2978 2973 2969 2965 2961 2955 2950 2946 2941 2936 2932 2928 2924 2919 2915 2911 2906 2902 2898 2894 2890 2885
Wind_Speed
18 21 21 17 15 14 12 11 11 13 15 15 15 12 14 14 15 14 14 14 13 15 17 18 18 19 19 19 18 18 18 18 18 19 20 20 21 23 24 25 26 26 27
20 20 20 20 15 13 10 7 8 11 16 16 20 14 15 15 17 18 17 17 16 17 18 20 20 20 21 20 20 20 20 20 21 21 22 23 24 26 26 27 28 28 29
14 12 18 22 20 13 10 6 8 14 20 20 23 20 17 18 18 20 20 19 18 20 21 21 22 22 22 22 21 22 22 23 24 25 26 27 27 28 28 28 28 29 30
22 16 18 25 20 13 9 10 10 18 24 24 25 19 23 22 22 22 22 20 21 22 22 23 23 23 23 23 23 23 24 25 27 28 29 31 32 33 32 29 29 30 31
26 24 23 24 28 20 13 11 18 30 29 29 27 33 28 26 24 24 24 23 23 24 24 24 24 24 24 24 24 25 26 28 29 31 32 33 34 35 36 34 30 32 33
36 34 31 26 28 23 24 23 23 31 28 28 28 33 30 27 26 26 25 24 25 25 24 24 24 24 25 25 26 28 29 31 32 33 33 34 34 34 37 41 42 43 37
52 46 37 33 33 31 28 29 33 28 25 26 31 34 32 28 29 27 26 25 26 25 24 24 25 26 26 27 28 30 31 32 33 34 34 34 36 39 41 45 48 51 49
45 44 43 43 40 39 35 35 33 30 30 27 35 36 33 30 28 27 26 26 26 25 25 25 26 26 27 28 30 32 33 34 35 34 34 37 41 43 45 48 50 53 54
41 39 40 36 36 37 38 35 34 36 32 33 37 35 31 29 27 26 26 25 25 25 26 26 26 27 28 30 31 32 34 34 35 37 39 41 43 45 46 47 50 52 59
34 37 45 40 37 35 35 34 32 32 33 35 34 32 30 27 26 26 26 26 26 26 26 26 26 28 30 31 32 33 34 36 39 41 43 44 45 45 46 47 49 51 55
23 30 33 42 41 35 33 32 32 32 32 32 31 28 26 26 26 26 26 26 26 25 25 26 28 29 30 32 33 35 37 40 42 44 45 45 46 46 47 49 50 50 51
14 16 22 27 32 32 31 30 30 30 30 29 28 26 25 25 26 26 26 25 24 25 26 27 28 30 31 33 35 38 42 44 43 44 45 45 47 47 48 48 48 48 47
12 16 17 20 23 25 26 27 27 27 27 26 25 24 25 26 26 25 24 24 25 26 26 27 28 30 33 36 39 44 43 44 44 45 46 47 48 48 46 46 45 45 47
13 14 19 21 22 23 24 24 24 24 24 24 24 24 25 25 24 24 24 25 25 25 26 28 31 34 38 40 43 43 43 44 44 46 47 47 46 45 44 43 43 44 45
14 15 14 16 18 19 20 22 23 23 23 23 24 24 23 23 24 24 24 23 24 26 28 31 36 38 40 41 42 43 43 44 44 45 45 44 43 42 42 43 43 43 42
13 15 16 16 17 18 20 21 22 22 22 23 22 23 23 23 23 22 22 24 25 28 33 35 37 38 39 40 41 43 44 45 45 44 42 40 39 40 40 40 41 40 40
20 17 16 16 17 19 20 21 21 22 22 22 23 23 22 21 21 22 23 26 30 32 35 36 37 37 39 40 42 43 44 44 44 43 42 40 38 38 39 39 39 38 37
24 23 22 21 21 21 22 23 23 23 23 22 21 20 20 20 21 24 27 29 31 34 35 36 37 38 39 41 42 42 43 42 41 40 39 38 38 38 40 40 39 37 37
20 22 23 23 23 22 22 22 21 20 19 19 19 19 21 23 24 26 29 31 32 33 34 36 37 40 40 40 40 41 41 40 38 37 38 39 39 39 40 40 40 39 38
16 19 20 21 21 21 22 21 19 19 19 19 19 20 22 24 26 29 30 30 31 33 35 36 39 39 39 38 37 39 41 41 40 38 38 38 39 39 39 40 40 40 40
18 19 20 20 20 20 19 19 18 17 18 19 21 23 24 26 28 28 28 30 33 34 35 37 36 37 38 38 39 40 41 42 41 40 39 39 38 38 38 38 37 37 39
19 20 21 20 20 19 18 17 17 18 20 22 23 25 25 27 27 28 30 32 33 34 35 35 35 36 37 39 39 40 41 41 41 40 40 40 39 38 38 37 37 38 39
17 19 20 21 19 18 17 18 19 20 22 22 23 25 26 26 27 29 29 31 34 35 35 36 37 37 38 39 40 41 40 40 40 40 40 40 38 37 37 37 37 37 38
20 21 23 22 21 20 21 22 21 21 22 23 24 25 25 26 27 28 31 33 34 35 36 37 39 39 40 41 42 42 41 39 38 39 39 37 36 37 37 37 36 36 36
20 23 23 23 24 25 23 21 21 21 24 22 22 23 23 25 27 31 32 32 33 35 37 39 41 42 43 44 45 45 43 41 40 40 39 37 37 36 36 35 34 34 34
23 27 28 28 28 24 21 20 22 24 23 21 21 22 24 27 29 29 30 33 35 37 39 42 44 45 46 46 45 42 40 39 38 38 37 36 36 36 35 34 34 33 32
Wind_Direction
213 216 200 197 196 200 208 225 240 248 253 254 255 256 266 271 277 279 282 284 286 286 283 280 278 278 279 279 280 283 287 291 296 301 305 307 308 307 306 304 302 300 300
218 221 225 202 202 199 207 226 259 271 268 275 274 264 264 267 271 278 282 287 288 284 280 278 277 276 276 277 279 282 285 289 294 298 300 301 303 305 305 303 301 299 299
209 229 243 227 205 183 185 223 266 284 278 267 267 268 267 266 271 275 279 284 286 284 280 277 275 275 276 278 280 282 285 289 294 296 298 299 300 302 303 301 299 299 299
231 233 248 232 210 189 194 237 279 294 279 270 269 267 278 275 271 274 277 281 283 282 278 275 274 275 278 279 280 282 285 290 294 296 299 302 305 306 303 300 299 299 301
246 248 248 244 227 216 211 241 264 271 283 277 281 279 268 266 267 269 273 278 282 281 277 275 275 277 279 279 280 282 287 291 295 299 303 305 305 305 304 302 299 297 300
216 217 252 248 233 232 246 259 239 245 251 263 277 276 270 268 269 269 272 278 280 280 277 276 277 278 278 279 281 284 289 294 298 301 303 303 304 304 303 303 303 299 295
226 232 230 244 238 236 253 240 242 242 246 260 274 278 271 267 266 267 271 275 278 277 275 275 276 276 277 279 282 288 294 298 301 302 303 304 304 304 303 303 302 302 301
227 235 237 237 242 241 249 250 250 257 263 267 273 269 268 263 262 264 269 274 276 274 273 274 274 275 277 282 288 294 297 300 301 302 303 304 304 303 302 302 302 301 301
236 234 234 241 240 241 246 245 249 253 256 258 261 266 265 260 259 263 268 272 272 272 272 272 273 278 284 289 293 296 298 299 300 301 302 302 301 301 302 301 302 302 304
242 243 239 238 237 237 236 240 241 249 254 259 264 267 262 258 259 263 267 269 268 268 270 274 280 285 288 291 293 295 297 299 300 300 301 301 301 301 301 300 300 301 301
245 238 233 231 235 234 235 241 249 254 257 260 264 262 256 255 258 262 264 264 266 270 275 279 283 286 288 291 294 297 299 300 300 301 302 302 302 302 301 300 299 298 298
248 240 230 231 235 237 241 246 249 253 258 260 257 252 250 252 257 260 262 265 269 274 278 281 284 287 291 294 297 299 300 300 301 302 302 302 302 302 301 300 299 299 300
256 241 234 231 231 234 240 246 250 253 252 248 244 244 248 253 257 261 265 269 274 278 281 284 288 292 294 296 297 300 301 302 303 303 303 303 302 301 300 299 300 300 301
264 245 237 239 241 243 244 245 243 241 239 238 240 245 251 256 261 265 269 274 278 281 285 289 293 295 297 297 299 301 302 304 305 305 303 302 301 300 300 301 302 301 301
264 251 240 234 234 235 235 235 234 233 235 240 246 251 257 261 266 270 274 278 281 286 291 294 296 297 297 298 300 303 304 304 303 302 302 301 301 301 303 303 303 303 306
265 252 241 233 233 235 237 237 238 239 242 247 253 258 261 264 267 270 274 280 285 289 293 293 294 297 300 303 304 304 303 303 303 303 302 302 302 301 301 302 302 305 307
244 242 242 245 247 247 245 244 244 246 250 253 255 257 259 263 267 272 277 282 288 290 293 295 298 301 302 303 303 303 304 306 307 306 304 302 300 300 301 302 305 308 307
236 239 253 254 252 250 247 245 246 247 249 250 253 257 261 265 270 276 283 286 289 293 295 298 300 303 304 303 303 304 306 306 305 303 301 302 303 303 304 306 306 306 303
230 234 238 242 243 242 241 242 245 246 247 250 253 257 262 270 277 282 286 289 292 294 298 301 303 304 305 305 306 306 306 305 304 302 303 304 305 306 306 306 304 303 302
258 253 253 254 251 252 251 248 244 243 245 248 253 260 269 275 282 286 287 289 294 299 302 304 305 306 305 304 305 307 310 310 307 305 305 306 306 306 304 303 304 303 302
256 252 252 251 244 239 234 231 232 237 245 255 262 267 274 281 285 287 293 298 300 300 303 305 305 305 306 309 311 312 312 311 309 307 306 305 304 304 304 304 304 301 300
258 256 253 246 239 232 223 225 235 245 253 258 264 272 277 287 291 293 295 297 300 303 304 305 307 309 310 312 312 312 311 309 307 306 305 305 305 305 305 303 302 301 300
257 250 244 238 223 220 228 237 244 251 256 266 267 274 284 286 289 293 296 300 304 306 308 309 311 312 311 311 309 309 308 307 305 305 305 305 305 304 302 302 303 302 303
256 245 229 222 225 231 235 243 249 253 260 258 272 278 282 289 294 297 302 306 308 310 312 313 312 312 311 310 309 309 308 305 303 302 302 303 303 303 305 306 306 305 305
244 232 227 231 235 242 246 247 256 252 252 267 274 283 290 294 299 304 307 309 311 312 312 311 310 309 308 308 309 310 309 306 304 304 305 305 305 305 306 305 304 304 304
237 236 238 240 243 244 245 253 249 245 258 274 283 288 293 298 302 305 308 311 311 311 312 311 309 308 308 308 308 307 304 302 303 304 305 306 306 306 306 307 307 308 307